Location: Washington
(38.8950°N, 77.0370°W)
Time: 19:52:10
(UTC-04:00)

Amateur Radio Satellites - All Passes

Search period start: 24 October 2014 19:22
Search period end: 25 October 2014 19:22
Location: Washington, 38.8950°N, 77.0370°W

Satellite Date Start Highest point End Downlink Frequencies (MHz)
Time Altitude Azimuth
ISS 24 Oct 19:40:20 19:43:39 59° 36° (NE) 19:46:57 145.800 FM
JAS-2 24 Oct 19:52:08 19:53:11 10° 276° (W) 19:54:15 435.800 - 435.900 CW/SSB, 435.910 FM
SO-67 24 Oct 20:01:12 20:04:16 30° 263° (W) 20:07:22 435.3500 MHz FM
HO-68 24 Oct 20:14:10 20:20:24 34° 63° (ENE) 20:26:38 435.675 MHz FM
KITSAT 1 24 Oct 20:34:23 20:41:23 31° 45° (NE) 20:48:20 435.175 FM
STRAND 1 24 Oct 20:37:15 20:42:12 47° 289° (WNW) 20:47:06 ?
Oscar 11 24 Oct 20:52:35 20:54:36 13° 64° (ENE) 20:56:38 145.825 FM, Beacon 2401.500 USB
SO-50 24 Oct 21:00:45 21:04:06 18° 44° (NE) 21:07:28 436.795 FM
ISS 24 Oct 21:18:15 21:19:59 14° 231° (SW) 21:21:42 145.800 FM
AO-40 24 Oct 21:19:32 23:15:51 29° 217° (SW) 03:16:11 Beacon 2401.320
RS-15 24 Oct 21:38:30 21:48:19 39° 107° (ESE) 21:58:01 29.354 - 29.394 USB, Beacon 29.352 USB
ZACube-1 24 Oct 21:39:59 21:43:16 20° 67° (ENE) 21:46:32 437.345 MHz
UKube-1 24 Oct 21:44:20 21:48:35 56° 73° (ENE) 21:52:52 145.840 MHz, 145.915 MHz
HO-68 24 Oct 22:01:04 22:07:51 46° 260° (W) 22:14:43 435.675 MHz FM
FUNcube-1 24 Oct 22:23:20 22:27:49 56° 74° (ENE) 22:32:16 145.950 - 145.970 MHz USB
Oscar 11 24 Oct 22:26:04 22:30:18 54° 260° (W) 22:34:34 145.825 FM, Beacon 2401.500 USB
UOSAT-12 24 Oct 22:26:07 22:28:16 13° 40° (NE) 22:30:24 437.025 FM, 437.400 FM
KITSAT 1 24 Oct 22:29:21 22:37:19 66° 246° (WSW) 22:45:15 435.175 FM
SO-50 24 Oct 22:40:17 22:45:06 65° 242° (WSW) 22:49:56 436.795 FM
ZACube-1 24 Oct 23:15:05 23:19:23 39° 262° (W) 23:23:38 437.345 MHz
MaSat-1 24 Oct 23:16:55 23:20:06 21° 108° (ESE) 23:23:06 437.345 MHz
UKube-1 24 Oct 23:23:32 23:25:06 12° 269° (W) 23:26:40 145.840 MHz, 145.915 MHz
RS-15 24 Oct 23:49:24 00:00:10 58° 308° (NW) 00:10:57 29.354 - 29.394 USB, Beacon 29.352 USB
FUNcube-1 25 Oct 00:02:22 00:04:29 13° 269° (W) 00:06:36 145.950 - 145.970 MHz USB
UOSAT-12 25 Oct 00:04:25 00:09:09 84° 59° (ENE) 00:13:47 437.025 FM, 437.400 FM
MaSat-1 25 Oct 00:52:00 00:55:37 29° 299° (WNW) 00:58:57 437.345 MHz
Oscar 19 25 Oct 01:19:46 01:20:37 10° 89° (E) 01:21:28 437.125 CW, 437.150 USB
JAS-1B 25 Oct 01:53:31 01:59:26 29° 97° (E) 02:06:13 435.800 - 435.900 CW/SSB
AO-Echo 25 Oct 01:58:20 02:01:20 15° 91° (E) 02:04:19 ?
Oscar 16 25 Oct 02:02:23 02:06:55 31° 97° (E) 02:11:25 437.025 USB, Beacon 2401.1428
RS-15 25 Oct 02:07:54 02:15:37 21° 338° (NNW) 02:23:25 29.354 - 29.394 USB, Beacon 29.352 USB
Uribyol 2 25 Oct 02:22:41 02:26:29 20° 94° (E) 02:30:15 436.500 FM
ITAMSAT 1 25 Oct 02:28:36 02:32:35 22° 94° (E) 02:36:32 435.822 SSB
Gurwin Techsat 1B 25 Oct 02:49:14 02:52:50 18° 92° (E) 02:56:24 435.225 FM
Oscar 19 25 Oct 02:55:24 03:00:32 81° 285° (WNW) 03:05:38 437.125 CW, 437.150 USB
Oscar 10/S400 25 Oct 02:57:26 03:30:07 12° 252° (WSW) 04:15:32 145.825 - 145.975 CW/USB, Beacon 145.810 USB
TMSAT-1 25 Oct 03:00:34 03:03:58 17° 92° (E) 03:07:19 436.925 FM
AO-27 25 Oct 03:13:22 03:18:33 61° 101° (ESE) 03:23:42 436.795 MHz FM
AO-Echo 25 Oct 03:35:13 03:40:29 64° 286° (WNW) 03:45:43 ?
Oscar 16 25 Oct 03:41:47 03:46:10 29° 292° (WNW) 03:50:31 437.025 USB, Beacon 2401.1428
Sapphire 25 Oct 03:42:17 03:47:16 39° 111° (ESE) 03:52:17 437.095 MHz 1200 baud AX-25 AFSK
JAS-1B 25 Oct 03:43:40 03:50:06 51° 289° (WNW) 03:57:43 435.800 - 435.900 CW/SSB
Uribyol 2 25 Oct 04:01:12 04:06:09 46° 289° (WNW) 04:11:04 436.500 FM
PCSat 25 Oct 04:04:21 04:09:42 68° 115° (ESE) 04:15:06 145.825 MHz
ITAMSAT 1 25 Oct 04:07:18 04:12:13 43° 290° (WNW) 04:17:06 435.822 SSB
RS-15 25 Oct 04:26:47 04:33:58 19° 16° (NNE) 04:41:17 29.354 - 29.394 USB, Beacon 29.352 USB
Gurwin Techsat 1B 25 Oct 04:27:55 04:33:05 52° 288° (WNW) 04:38:12 435.225 FM
OPAL 25 Oct 04:29:10 04:33:16 25° 64° (ENE) 04:37:21 ?
TMSAT-1 25 Oct 04:39:01 04:44:12 56° 288° (WNW) 04:49:21 436.925 FM
AO-27 25 Oct 04:54:18 04:57:32 17° 298° (WNW) 05:00:46 436.795 MHz FM
JAS-2 25 Oct 05:12:29 05:17:42 19° 89° (E) 05:22:51 435.800 - 435.900 CW/SSB, 435.910 FM
AO-7 25 Oct 05:18:59 05:27:15 63° 104° (ESE) 05:35:29 29.400 - 29.500 MHz
Uosat F 25 Oct 05:20:20 05:25:17 53° 101° (E) 05:30:11 435.120 FM
Sapphire 25 Oct 05:26:06 05:30:46 29° 308° (NW) 05:35:28 437.095 MHz 1200 baud AX-25 AFSK
PCSat 25 Oct 05:49:52 05:53:38 19° 313° (NW) 05:57:26 145.825 MHz
OPAL 25 Oct 06:07:08 06:11:55 39° 260° (W) 06:16:42 ?
STRAND 1 25 Oct 06:13:51 06:17:59 25° 66° (ENE) 06:22:08 ?
Hamsat 25 Oct 06:22:58 06:26:43 31° 97° (E) 06:30:28 145.90 MHz
RS-15 25 Oct 06:39:35 06:50:13 47° 47° (NE) 07:01:13 29.354 - 29.394 USB, Beacon 29.352 USB
JAS-2 25 Oct 06:55:34 07:03:24 84° 285° (WNW) 07:11:11 435.800 - 435.900 CW/SSB, 435.910 FM
Uosat F 25 Oct 07:00:17 07:03:37 18° 297° (WNW) 07:06:57 435.120 FM
Saudisat 1A 25 Oct 07:12:28 07:16:17 30° 114° (ESE) 07:20:07 436.775 MHz
AO-7 25 Oct 07:12:37 07:19:27 30° 302° (WNW) 07:26:18 29.400 - 29.500 MHz
SO-67 25 Oct 07:26:02 07:28:24 17° 94° (E) 07:30:45 435.3500 MHz FM
PANSAT 25 Oct 07:47:17 07:49:06 13° 168° (SSE) 07:50:55 not established
STRAND 1 25 Oct 07:52:15 07:56:57 37° 262° (W) 08:01:43 ?
Hamsat 25 Oct 07:59:22 08:02:28 20° 292° (WNW) 08:05:34 145.90 MHz
JAS-2 25 Oct 08:42:29 08:47:18 18° 303° (WNW) 08:52:10 435.800 - 435.900 CW/SSB, 435.910 FM
Saudisat 1A 25 Oct 08:52:02 08:55:48 28° 310° (NW) 08:59:37 436.775 MHz
RS-15 25 Oct 08:52:02 09:02:46 54° 249° (WSW) 09:14:00 29.354 - 29.394 USB, Beacon 29.352 USB
SO-67 25 Oct 08:58:34 09:01:19 23° 289° (WNW) 09:04:04 435.3500 MHz FM
MaSat-1 25 Oct 09:03:54 09:05:43 17° 57° (ENE) 09:07:26 437.345 MHz
PANSAT 25 Oct 09:26:02 09:28:35 17° 181° (S) 09:31:08 not established
HO-68 25 Oct 09:29:55 09:36:31 38° 98° (E) 09:43:03 435.675 MHz FM
UKube-1 25 Oct 09:36:45 09:37:26 10° 91° (E) 09:38:08 145.840 MHz, 145.915 MHz
Oscar 11 25 Oct 10:15:11 10:18:55 28° 96° (E) 10:22:38 145.825 FM, Beacon 2401.500 USB
FUNcube-1 25 Oct 10:16:29 10:17:32 11° 90° (E) 10:18:35 145.950 - 145.970 MHz USB
KITSAT 1 25 Oct 11:03:25 11:09:00 21° 103° (ESE) 11:14:36 435.175 FM
ZACube-1 25 Oct 11:05:33 11:09:36 42° 98° (E) 11:13:34 437.345 MHz
PANSAT 25 Oct 11:06:30 11:08:04 12° 193° (SSW) 11:09:37 not established
UKube-1 25 Oct 11:09:41 11:14:01 64° 286° (WNW) 11:18:19 145.840 MHz, 145.915 MHz
HO-68 25 Oct 11:17:35 11:24:10 40° 295° (WNW) 11:30:44 435.675 MHz FM
FUNcube-1 25 Oct 11:50:08 11:54:17 55° 286° (WNW) 11:58:21 145.950 - 145.970 MHz USB
Oscar 11 25 Oct 11:51:33 11:54:57 23° 292° (WNW) 11:58:20 145.825 FM, Beacon 2401.500 USB
ISS 25 Oct 12:21:34 12:24:39 36° 135° (SE) 12:27:45 145.800 FM
Sapphire 25 Oct 12:31:31 12:36:05 26° 51° (NE) 12:40:36 437.095 MHz 1200 baud AX-25 AFSK
Oscar 19 25 Oct 12:34:25 12:37:23 16° 62° (ENE) 12:40:20 437.125 CW, 437.150 USB
JAS-1B 25 Oct 12:41:00 12:44:41 18° 62° (ENE) 12:48:16 435.800 - 435.900 CW/SSB
Oscar 10/S400 25 Oct 12:42:02 13:01:28 31° 152° (SSE) 13:18:15 145.825 - 145.975 CW/USB, Beacon 145.810 USB
ZACube-1 25 Oct 12:43:09 12:45:37 15° 295° (WNW) 12:48:03 437.345 MHz
PCSat 25 Oct 12:53:39 12:58:48 42° 56° (NE) 13:03:55 145.825 MHz
SO-50 25 Oct 12:53:56 12:58:17 55° 117° (ESE) 13:02:48 436.795 FM
KITSAT 1 25 Oct 12:55:25 13:03:30 78° 300° (WNW) 13:11:37 435.175 FM
AO-Echo 25 Oct 13:10:27 13:13:31 17° 63° (ENE) 13:16:39 ?
Oscar 16 25 Oct 13:18:03 13:22:52 41° 70° (ENE) 13:27:40 437.025 USB, Beacon 2401.1428
Uribyol 2 25 Oct 13:39:14 13:43:37 28° 67° (ENE) 13:48:01 436.500 FM
ITAMSAT 1 25 Oct 13:45:19 13:49:47 30° 67° (ENE) 13:54:17 435.822 SSB
ISS 25 Oct 13:58:31 14:01:23 26° 332° (NNW) 14:04:16 145.800 FM
Gurwin Techsat 1B 25 Oct 14:08:59 14:13:19 26° 66° (ENE) 14:17:40 435.225 FM
Oscar 19 25 Oct 14:11:04 14:16:10 64° 259° (WSW) 14:21:17 437.125 CW, 437.150 USB
Sapphire 25 Oct 14:14:31 14:19:40 44° 249° (WSW) 14:24:46 437.095 MHz 1200 baud AX-25 AFSK
UOSAT-12 25 Oct 14:14:36 14:18:44 33° 114° (ESE) 14:22:57 437.025 FM, 437.400 FM
TMSAT-1 25 Oct 14:19:57 14:24:10 25° 66° (ENE) 14:28:23 436.925 FM
AO-7 25 Oct 14:28:33 14:33:10 16° 50° (NE) 14:37:46 29.400 - 29.500 MHz
JAS-1B 25 Oct 14:28:59 14:34:55 59° 258° (WSW) 14:40:31 435.800 - 435.900 CW/SSB
AO-27 25 Oct 14:30:13 14:35:25 81° 75° (ENE) 14:40:41 436.795 MHz FM
SO-50 25 Oct 14:36:01 14:39:12 19° 316° (NW) 14:42:28 436.795 FM
PCSat 25 Oct 14:37:34 14:41:58 26° 253° (WSW) 14:46:21 145.825 MHz
AO-Echo 25 Oct 14:47:00 14:51:46 55° 260° (W) 14:56:43 ?
KITSAT 1 25 Oct 14:54:32 15:00:16 21° 323° (NW) 15:06:02 435.175 FM
Oscar 16 25 Oct 14:58:21 15:02:20 22° 266° (W) 15:06:19 437.025 USB, Beacon 2401.1428
Uribyol 2 25 Oct 15:18:14 15:22:56 34° 263° (W) 15:27:41 436.500 FM
ITAMSAT 1 25 Oct 15:24:34 15:29:10 32° 263° (W) 15:33:49 435.822 SSB
ISS 25 Oct 15:38:27 15:38:59 10° 351° (N) 15:39:32 145.800 FM
Saudisat 1A 25 Oct 15:40:18 15:43:35 20° 46° (NE) 15:46:51 436.775 MHz
Gurwin Techsat 1B 25 Oct 15:48:12 15:53:05 37° 262° (W) 15:58:00 435.225 FM
UOSAT-12 25 Oct 15:54:52 15:58:53 28° 311° (NW) 16:02:59 437.025 FM, 437.400 FM
TMSAT-1 25 Oct 15:58:52 16:03:49 40° 262° (W) 16:08:49 436.925 FM
AO-27 25 Oct 16:14:16 16:15:31 11° 271° (W) 16:16:47 436.795 MHz FM
AO-7 25 Oct 16:16:20 16:24:34 75° 69° (ENE) 16:32:50 29.400 - 29.500 MHz
Uosat F 25 Oct 16:32:17 16:37:14 64° 73° (ENE) 16:42:14 435.120 FM
JAS-2 25 Oct 17:06:48 17:12:13 37° 66° (ENE) 17:18:18 435.800 - 435.900 CW/SSB, 435.910 FM
Hamsat 25 Oct 17:15:44 17:18:48 20° 68° (ENE) 17:21:51 145.90 MHz
ISS 25 Oct 17:15:45 17:16:56 11° 12° (NNE) 17:18:06 145.800 FM
Saudisat 1A 25 Oct 17:19:08 17:23:23 47° 244° (WSW) 17:27:36 436.775 MHz
AO-7 25 Oct 18:12:01 18:18:01 22° 267° (W) 18:24:04 29.400 - 29.500 MHz
Uosat F 25 Oct 18:14:02 18:16:26 13° 269° (W) 18:18:51 435.120 FM
OPAL 25 Oct 18:17:53 18:22:47 59° 103° (ESE) 18:27:39 ?
Hamsat 25 Oct 18:50:46 18:54:32 31° 263° (W) 18:58:17 145.90 MHz
ISS 25 Oct 18:51:17 18:54:24 35° 31° (NNE) 18:57:29 145.800 FM
JAS-2 25 Oct 18:52:03 18:57:18 33° 266° (W) 19:03:11 435.800 - 435.900 CW/SSB, 435.910 FM
KITSAT 1 25 Oct 18:56:39 18:59:55 13° 25° (NNE) 19:03:10 435.175 FM
